Le nostre stazioni meteo in Italia

Pubblicità
Il mio iltempo24.it
Parma, Italia (16086): Temperatura & dewpoint: 19.05.2019 08:00:00 - 25.05.2019 08:00:00 (CEST)Parma, Italia (16086): velocità del vento: 19.05.2019 08:00:00 - 25.05.2019 08:00:00 (CEST)Parma, Italia (16086): direzione del vento: 19.05.2019 08:00:00 - 25.05.2019 08:00:00 (CEST)Parma, Italia (16086): reduced air pressure: 19.05.2019 08:00:00 - 25.05.2019 08:00:00 (CEST)Parma, Italia (16086): precipitazioni: 19.05.2019 08:00:00 - 25.05.2019 08:00:00 (CEST)
Data & Tempo tt [°C] td [°C] ff [km/h] ff [kn] dd ppp [hPa] rr [mm]
25.05.2019 08:00:00 - - - - - - -
25.05.2019 07:00:00 15,6 9,5 7 4 SO 1014,2 0,0
25.05.2019 06:00:00 15,7 9,4 4 2 OSO 1013,8 0,0
25.05.2019 05:00:00 16,2 9,4 8 4 SO 1013,2 0,0
25.05.2019 04:00:00 17,1 10,0 3 2 SO 1013,0 0,0
25.05.2019 03:00:00 17,4 10,5 7 4 SO 1013,0 0,0
25.05.2019 02:00:00 17,7 11,9 7 4 OSO 1013,3 0,0
25.05.2019 01:00:00 - - - - - - -
25.05.2019 00:00:00 19,1 12,1 9 5 SO 1012,8 0,0
24.05.2019 23:00:00 20,1 11,3 11 6 SSO 1012,7 0,0
24.05.2019 22:00:00 20,7 11,9 10 5 SSO 1012,4 0,0
24.05.2019 21:00:00 21,7 10,5 8 4 SSO 1012,0 0,0
24.05.2019 20:00:00 22,3 10,1 7 4 SO 1011,6 0,0
24.05.2019 19:00:00 22,7 11,1 9 5 SO 1011,5 0,0
24.05.2019 18:00:00 23,5 - - - - - 0,0
24.05.2019 17:00:00 25,2 11,7 3 1 SSE 1011,8 0,0
24.05.2019 16:00:00 25,8 - - - - - -
24.05.2019 15:00:00 25,4 12,3 9 5 E 1012,6 0,0
24.05.2019 14:00:00 24,2 - - - - - -
24.05.2019 13:00:00 23,0 12,6 9 5 NNE 1013,8 0,0
24.05.2019 12:00:00 21,8 12,4 5 3 O 1014,4 0,0
24.05.2019 11:00:00 20,4 - 6 3 NO 1014,7 0,0
24.05.2019 10:00:00 19,7 11,5 4 2 ONO 1014,8 0,0
24.05.2019 09:00:00 18,7 10,5 4 2 NO 1014,8 0,0
24.05.2019 08:00:00 16,3 - - - - - 0,0
24.05.2019 07:00:00 15,7 10,0 4 2 OSO 1014,6 0,0
24.05.2019 06:00:00 15,6 10,1 8 4 SO 1014,4 0,0
24.05.2019 05:00:00 16,1 10,2 7 4 SSO 1014,2 0,0
24.05.2019 04:00:00 16,5 10,6 10 5 SSO 1014,2 0,0
24.05.2019 03:00:00 17,3 10,9 8 4 SSO 1014,3 0,0
24.05.2019 02:00:00 18,0 11,1 8 5 SSO 1014,4 0,0
24.05.2019 01:00:00 19,1 10,9 12 6 SSO 1014,6 0,0
24.05.2019 00:00:00 19,2 11,7 8 5 SSO 1014,6 0,0
23.05.2019 23:00:00 20,3 12,0 6 4 SO 1014,3 0,0
23.05.2019 22:00:00 21,9 11,6 4 2 SO 1014,2 0,0
23.05.2019 21:00:00 22,9 10,7 6 3 S 1013,6 0,0
23.05.2019 20:00:00 23,7 10,0 4 2 SO 1013,2 0,0
23.05.2019 19:00:00 24,5 9,6 6 3 S 1013,4 0,0
23.05.2019 18:00:00 24,7 9,8 11 6 SO 1013,6 0,0
23.05.2019 17:00:00 24,4 10,7 4 2 SSE 1014,0 0,0
23.05.2019 16:00:00 24,7 10,9 8 4 NE 1014,4 0,0
23.05.2019 15:00:00 23,5 11,2 7 4 N 1014,8 0,0
23.05.2019 14:00:00 23,4 - - - - - 0,0
23.05.2019 13:00:00 22,4 12,1 6 3 N 1016,1 0,0
23.05.2019 12:00:00 21,8 - - - - - -
23.05.2019 11:00:00 20,9 11,8 5 3 SSE 1016,9 0,0
23.05.2019 10:00:00 19,3 12,3 4 2 NO 1017,1 0,0
23.05.2019 09:00:00 17,8 11,1 5 3 O 1017,1 0,0
23.05.2019 08:00:00 15,8 10,1 4 2 SO 1017,2 0,0
23.05.2019 07:00:00 15,4 10,4 5 3 SO 1016,9 0,0
23.05.2019 06:00:00 15,0 10,4 6 4 SSO 1016,8 0,0
23.05.2019 05:00:00 15,8 10,8 7 4 SO 1016,7 0,0
23.05.2019 04:00:00 16,2 11,6 4 2 O 1016,8 0,0
23.05.2019 03:00:00 16,3 11,5 4 2 SO 1016,4 0,0
23.05.2019 02:00:00 16,9 - - - - - 0,0
23.05.2019 01:00:00 16,9 11,0 6 4 SO 1016,4 0,0
23.05.2019 00:00:00 17,1 10,7 9 5 S 1015,6 0,0
22.05.2019 23:00:00 18,0 10,6 11 6 SSO 1015,4 0,0
22.05.2019 22:00:00 17,9 11,7 7 4 S 1015,2 0,0
22.05.2019 21:00:00 19,1 12,1 7 4 S 1014,5 0,0
22.05.2019 20:00:00 20,9 11,2 10 5 S 1013,8 0,0
22.05.2019 19:00:00 21,5 11,5 11 6 S 1013,7 0,0
22.05.2019 18:00:00 21,1 10,3 12 6 SSO 1013,8 0,0
22.05.2019 17:00:00 21,3 10,8 14 7 S 1013,8 0,0
22.05.2019 16:00:00 20,9 11,0 18 10 S 1013,8 0,0
22.05.2019 15:00:00 23,3 11,4 6 3 NNO 1013,7 0,0
22.05.2019 14:00:00 21,8 12,1 5 3 NE 1014,0 0,0
22.05.2019 13:00:00 21,5 - - - - - -
22.05.2019 12:00:00 21,9 - - - - - 0,0
22.05.2019 11:00:00 19,5 12,0 5 3 NNO 1014,9 0,0
22.05.2019 10:00:00 18,1 - - - - - 0,0
22.05.2019 09:00:00 17,3 - - - - - 0,0
22.05.2019 08:00:00 16,1 11,5 3 2 NO 1014,7 0,0
22.05.2019 07:00:00 15,4 10,8 1 1 ONO 1014,5 0,0
22.05.2019 06:00:00 14,9 10,5 3 2 O 1014,2 0,0
22.05.2019 05:00:00 15,0 10,8 5 3 OSO 1013,8 0,0
22.05.2019 04:00:00 15,5 10,9 8 4 SO 1013,5 0,0
22.05.2019 03:00:00 16,1 10,4 5 3 SO 1013,2 0,0
22.05.2019 02:00:00 16,8 8,7 5 3 ONO 1013,0 0,0
22.05.2019 01:00:00 17,0 8,7 16 9 SSO 1012,8 0,0
22.05.2019 00:00:00 17,2 8,6 16 9 SSO 1013,0 0,0
21.05.2019 23:00:00 17,5 8,6 16 9 SO 1013,3 0,0
21.05.2019 22:00:00 18,3 8,6 9 5 OSO 1013,0 0,0
21.05.2019 21:00:00 19,3 8,6 6 3 NE 1012,1 0,0
21.05.2019 20:00:00 20,2 7,9 18 10 S 1010,1 0,0
21.05.2019 19:00:00 21,8 8,0 20 11 SSO 1009,4 0,0
21.05.2019 18:00:00 22,7 8,0 18 10 SSO 1009,3 0,0
21.05.2019 17:00:00 22,4 8,9 16 8 SO 1009,3 0,0
21.05.2019 16:00:00 23,3 9,3 18 10 SSO 1009,3 0,0
21.05.2019 15:00:00 22,7 9,5 19 10 SO 1009,3 0,0
21.05.2019 14:00:00 22,6 9,7 18 10 SSO 1009,0 0,0
21.05.2019 13:00:00 22,1 12,4 6 3 O 1008,9 0,0
21.05.2019 12:00:00 20,3 12,8 4 2 O 1008,9 0,0
21.05.2019 11:00:00 18,7 12,7 7 4 NNE 1008,9 0,0
21.05.2019 10:00:00 17,4 - - - - - 0,0
21.05.2019 09:00:00 15,9 11,3 4 2 ONO 1008,7 0,0
21.05.2019 08:00:00 14,4 10,6 - - - 1008,5 0,0
21.05.2019 07:00:00 13,6 10,4 4 2 O 1008,1 0,0
21.05.2019 06:00:00 13,9 9,5 - - - 1007,9 0,0
21.05.2019 05:00:00 15,0 8,7 6 3 OSO 1007,5 0,0
21.05.2019 04:00:00 14,9 8,8 8 4 OSO 1007,7 0,0
21.05.2019 03:00:00 14,9 8,6 8 4 OSO 1007,8 0,0
21.05.2019 02:00:00 15,1 8,1 9 5 SO 1007,7 0,0
21.05.2019 01:00:00 14,9 8,1 9 5 SSO 1007,8 0,0
21.05.2019 00:00:00 14,8 8,3 - - - 1007,8 -
20.05.2019 23:00:00 14,6 8,5 12 6 SO 1008,0 0,0
20.05.2019 22:00:00 14,9 8,4 13 7 SO 1007,6 0,0
20.05.2019 21:00:00 15,0 8,5 11 6 SO 1007,3 0,0
20.05.2019 20:00:00 15,4 8,9 14 7 SO 1007,3 0,0
20.05.2019 19:00:00 16,4 9,6 11 6 SSO 1006,8 0,0
20.05.2019 18:00:00 17,3 9,2 12 6 SSO 1006,8 0,0
20.05.2019 17:00:00 17,8 8,9 15 8 SO 1006,5 0,0
20.05.2019 16:00:00 17,8 8,6 13 7 OSO 1006,4 0,0
20.05.2019 15:00:00 18,0 9,1 10 5 OSO 1006,4 0,0
20.05.2019 14:00:00 18,3 12,3 7 4 NO 1006,2 0,0
20.05.2019 13:00:00 18,1 11,2 8 4 ONO 1005,9 0,0
20.05.2019 12:00:00 17,3 12,0 6 3 NNO 1005,8 0,0
20.05.2019 11:00:00 15,7 12,1 4 2 NO 1006,0 0,0
20.05.2019 10:00:00 14,3 - - - - - -
20.05.2019 09:00:00 13,3 12,2 6 3 S 1005,7 0,2
20.05.2019 08:00:00 12,9 12,3 4 2 S 1005,2 0,6
20.05.2019 07:00:00 12,4 12,2 6 3 S 1004,9 1,4
20.05.2019 06:00:00 12,7 12,5 3 1 OSO 1004,7 2,2
20.05.2019 05:00:00 12,9 12,7 3 1 O 1004,9 2,4
20.05.2019 04:00:00 12,9 12,7 3 1 O 1004,9 0,8
20.05.2019 03:00:00 12,9 12,7 2 1 O 1005,3 1,0
20.05.2019 02:00:00 13,0 12,8 3 2 OSO 1005,6 0,2
20.05.2019 01:00:00 13,0 12,7 3 2 SO 1005,7 0,6
20.05.2019 00:00:00 13,1 12,8 3 2 SO 1005,9 0,4
19.05.2019 23:00:00 13,3 12,8 2 1 S 1006,0 0,4
19.05.2019 22:00:00 13,4 12,8 2 1 S 1005,9 0,4
19.05.2019 21:00:00 13,2 12,4 1 1 ENE 1005,6 0,6
19.05.2019 20:00:00 13,4 12,5 3 1 NNE 1005,5 0,8
19.05.2019 19:00:00 13,9 13,4 1 1 NO 1005,3 1,0
19.05.2019 18:00:00 13,6 13,1 3 2 ONO 1005,5 3,6
19.05.2019 17:00:00 14,0 13,5 5 3 NO 1005,1 0,6
19.05.2019 16:00:00 14,0 13,4 4 2 O 1005,1 0,6
19.05.2019 15:00:00 14,1 13,1 4 2 O 1004,9 0,0
19.05.2019 14:00:00 13,8 12,9 5 3 O 1005,1 0,0
19.05.2019 13:00:00 13,5 12,6 4 2 O 1005,0 0,0
19.05.2019 12:00:00 13,3 12,5 4 2 O 1005,1 0,0
19.05.2019 11:00:00 13,3 12,5 5 3 O 1005,1 0,0
19.05.2019 10:00:00 12,9 12,4 4 2 OSO 1005,2 0,0
19.05.2019 09:00:00 12,1 12,1 3 2 O 1005,2 0,0
19.05.2019 08:00:00 11,7 11,7 5 3 O 1005,0 0,0

tt = Temperatura
td = dewpoint
ff = velocità del vento
dd = direzione del vento
ppp = reduced air pressure
rr = precipitazioni

Stazioni seguenti

WeatherPro
AMSI
MeteoEarth